N0PFE-1 Weather Reports


Display with metric or nautical units.
time (UTC)temp
F
wind
direction
speed
MPH
gust
MPH
rain 1hr
in
rain 24hr
in
rain mn
in
humidity
%
barometer
mb
20260507003027 62 348 3.0 5.0 0.00 0.30 0.30 87 1013.8
20260507002028 62 299 3.0 5.0 0.00 0.30 0.30 87 1014.5
20260507001028 62 322 3.0 5.0 0.00 0.30 0.30 86 1013.7
20260507000029 63 4 3.0 6.0 0.00 0.30 0.30 86 1013.8
20260506235024 63 328 4.0 6.0 0.00 0.30 0.30 86 1013.9
20260506234041 62 346 5.0 7.0 0.00 0.30 0.30 86 1014.0
20260506233101 62 359 4.0 7.0 0.00 0.30 0.30 87 1014.3
20260506231029 62 25 5.0 6.0 0.00 0.30 0.30 87 1013.9
20260506230047 62 331 5.0 7.0 0.00 0.30 0.30 87 1013.9
20260506224016 62 318 5.0 6.0 0.00 0.30 0.30 87 1013.9
20260506223132 62 321 6.0 9.0 0.00 0.30 0.30 87 1013.8
20260506222045 61 311 6.0 9.0 0.00 0.30 0.30 88 1013.6
20260506221042 61 287 7.0 10.0 0.00 0.30 0.30 88 1013.5
20260506220019 61 307 5.0 7.0 0.00 0.30 0.30 88 1013.6
20260506215112 61 337 5.0 9.0 0.00 0.30 0.30 89 1013.9
20260506214128 61 301 8.0 12.0 0.00 0.30 0.30 88 1014.1
20260506213042 61 328 6.0 8.0 0.00 0.30 0.30 88 1013.8
20260506212017 62 299 7.0 11.0 0.00 0.30 0.30 87 1013.7
20260506211025 62 312 6.0 10.0 0.00 0.30 0.30 87 1013.8
20260506210106 62 300 9.0 11.0 0.00 0.30 0.30 88 1014.0
20260506205041 62 308 7.0 9.0 0.00 0.30 0.30 88 1014.0
20260506204038 61 315 6.0 9.0 0.00 0.30 0.30 90 1014.1
20260506202027 62 313 8.0 10.0 0.00 0.30 0.30 90 1014.0
20260506201023 61 315 6.0 10.0 0.00 0.30 0.30 91 1014.3
20260506200058 61 295 8.0 12.0 0.00 0.30 0.30 90 1014.1
20260506195038 62 297 10.0 11.0 0.00 0.30 0.30 90 1014.0
20260506194040 61 303 10.0 13.0 0.00 0.30 0.30 90 1014.0
20260506193106 62 305 10.0 14.0 0.00 0.30 0.30 90 1014.0
20260506192022 63 292 8.0 10.0 0.00 0.30 0.30 90 1014.0
20260506191037 63 300 8.0 10.0 0.00 0.30 0.30 90 1013.9
20260506190023 63 333 7.0 11.0 0.00 0.30 0.30 91 1014.0
20260506185144 63 310 9.0 12.0 0.00 0.30 0.30 91 1014.1
20260506184021 63 292 10.0 12.0 0.00 0.30 0.30 91 1014.1
20260506183018 63 309 12.0 16.0 0.00 0.30 0.30 90 1014.1
20260506182148 65 299 11.0 16.0 0.00 0.30 0.30 89 1013.8
20260506181047 68 292 9.0 15.0 0.00 0.30 0.30 87 1013.6
20260506180022 72 324 5.0 7.0 0.00 0.30 0.30 83 1013.5
20260506175043 73 317 4.0 6.0 0.00 0.30 0.30 82 1013.5
20260506174104 73 291 4.0 6.0 0.00 0.30 0.30 80 1013.5
20260506173109 74 337 3.0 5.0 0.00 0.30 0.30 80 1013.4
20260506172125 72 344 3.0 6.0 0.00 0.30 0.30 82 1013.0
20260506171022 71 104 4.0 6.0 0.00 0.30 0.30 83 1012.8
20260506170037 72 100 4.0 6.0 0.00 0.30 0.30 83 1012.8
20260506165111 70 125 4.0 6.0 0.07 0.30 0.30 85 1012.8
20260506164152 69 113 6.0 8.0 0.30 0.30 0.30 92 1013.0
20260506163046 67 57 3.0 5.0 0.30 0.30 0.30 99 1013.3
20260506162040 65 68 3.0 5.0 0.30 0.30 0.30 99 1013.5
20260506161021 64 16 4.0 6.0 0.30 0.30 0.30 99 1013.9
20260506160020 63 24 2.0 4.0 0.30 0.30 0.30 99 1015.0
20260506155031 62 280 3.0 5.0 0.23 0.23 0.23 99 1014.9
20260506154045 63 286 6.0 9.0 0.00 0.00 0.00 99 1014.3
20260506153045 64 14 8.0 10.0 0.00 0.00 0.00 98 1013.3
20260506152031 65 352 6.0 8.0 0.00 0.00 0.00 98 1013.4
20260506151128 65 14 7.0 9.0 0.00 0.00 0.00 98 1013.2
20260506150027 66 350 10.0 15.0 0.00 0.00 0.00 98 1013.2
20260506145021 70 306 9.0 11.0 0.00 0.00 0.00 98 1012.8
20260506144034 75 310 1.0 3.0 0.00 0.00 0.00 99 1012.1
20260506143027 75 116 1.0 2.0 0.00 0.00 0.00 99 1011.6
20260506142027 75 153 3.0 4.0 0.00 0.00 0.00 99 1010.9
20260506141043 75 122 3.0 4.0 0.00 0.00 0.00 99 1010.9
20260506140047 75 106 2.0 3.0 0.00 0.00 0.00 99 1011.2
20260506135042 74 119 3.0 4.0 0.00 0.00 0.00 99 1011.1
20260506134100 74 111 1.0 3.0 0.00 0.00 0.00 99 1010.8
20260506133034 74 109 3.0 4.0 0.00 0.00 0.00 99 1010.8
20260506132027 74 120 1.0 3.0 0.00 0.00 0.00 99 1010.8
20260506131043 74 113 0.0 2.0 0.00 0.00 0.00 99 1010.5
20260506130133 73 113 1.0 2.0 0.00 0.00 0.00 99 1010.4
20260506125051 73 149 2.0 2.0 0.00 0.00 0.00 99 1010.3
20260506124110 73 136 2.0 3.0 0.00 0.00 0.00 99 1010.3
20260506123051 73 125 2.0 3.0 0.00 0.00 0.00 99 1010.3
20260506122104 73 114 1.0 2.0 0.00 0.00 0.00 99 1010.2
20260506121029 73 94 0.0 2.0 0.00 0.00 0.00 99 1010.2
20260506120049 73 113 2.0 3.0 0.00 0.00 0.00 99 1010.2
20260506115024 73 129 2.0 3.0 0.00 0.00 0.00 99 1010.2
20260506114139 73 129 2.0 3.0 0.00 0.00 0.00 99 1010.1
20260506113025 73 136 2.0 3.0 0.00 0.00 0.00 99 1010.1
20260506112019 73 135 0.0 1.0 0.00 0.00 0.00 99 1010.3
20260506111058 73 134 2.0 2.0 0.00 0.00 0.00 99 1010.4
20260506110038 73 180 1.0 2.0 0.00 0.00 0.00 99 1010.3
20260506105016 73 150 1.0 2.0 0.00 0.00 0.00 99 1010.2
20260506104024 73 142 1.0 2.0 0.00 0.00 0.00 99 1010.1
20260506103020 74 0.0 0.0 0.00 0.00 0.00 99 1010.1
20260506102019 74 144 2.0 3.0 0.00 0.00 0.00 97 1009.9
20260506101114 74 140 2.0 4.0 0.00 0.00 0.00 92 1009.8
20260506100027 74 160 2.0 3.0 0.00 0.00 0.00 89 1009.7
20260506095141 75 166 1.0 2.0 0.00 0.00 0.00 89 1009.7
20260506094033 75 181 1.0 2.0 0.00 0.00 0.00 89 1009.7
20260506093033 75 190 3.0 5.0 0.00 0.00 0.00 89 1009.4
20260506092111 75 158 2.0 3.0 0.00 0.00 0.00 89 1009.2
20260506091111 75 155 2.0 3.0 0.00 0.00 0.00 88 1009.2
20260506090044 75 152 2.0 4.0 0.00 0.00 0.00 88 1009.0
20260506085100 75 284 2.0 3.0 0.00 0.00 0.00 87 1009.0
20260506084121 75 171 2.0 4.0 0.00 0.00 0.00 87 1009.0
20260506083134 75 117 3.0 5.0 0.00 0.00 0.00 87 1008.8
20260506082047 75 166 4.0 7.0 0.00 0.00 0.00 86 1009.0
20260506081021 75 170 3.0 6.0 0.00 0.00 0.00 86 1009.2
20260506073019 75 148 5.0 9.0 0.00 0.00 0.00 85 1009.3
20260506072104 75 149 5.0 8.0 0.00 0.00 0.00 85 1009.3
20260506071023 75 152 5.0 7.0 0.00 0.00 0.00 85 1009.3
20260506062034 75 157 5.0 7.0 0.00 0.00 0.00 86 1009.0
20260506061048 75 155 6.0 7.0 0.00 0.00 0.00 86 1009.0
20260506051039 75 150 7.0 10.0 0.00 0.00 0.00 84 1009.2
20260506045053 76 177 4.0 8.0 0.00 0.00 0.00 82 1009.3
20260506044048 76 136 4.0 6.0 0.00 0.00 0.00 82 1009.4
20260506042019 76 124 3.0 6.0 0.00 0.00 0.00 80 1009.2
20260506041054 76 147 3.0 5.0 0.00 0.00 0.00 79 1009.2
20260506040048 76 173 1.0 3.0 0.00 0.00 0.00 78 1009.1
20260506035104 77 96 3.0 4.0 0.00 0.00 0.00 77 1008.9
20260506034019 77 143 4.0 5.0 0.00 0.00 0.00 76 1008.8
20260506033021 77 144 5.0 9.0 0.00 0.00 0.00 75 1008.5
20260506032027 77 156 6.0 9.0 0.00 0.00 0.00 74 1008.5
20260506031023 78 166 6.0 11.0 0.00 0.00 0.00 73 1008.3
20260506030019 78 145 4.0 7.0 0.00 0.00 0.00 73 1008.2
20260506025026 78 155 5.0 7.0 0.00 0.00 0.00 73 1008.1
20260506024027 78 147 6.0 9.0 0.00 0.00 0.00 72 1008.0
20260506023024 78 132 5.0 6.0 0.00 0.00 0.00 72 1007.8
20260506022018 78 131 4.0 6.0 0.00 0.00 0.00 71 1007.6
20260506021149 78 136 5.0 7.0 0.00 0.00 0.00 70 1007.4
20260506020047 79 128 4.0 5.0 0.00 0.00 0.00 70 1007.3
20260506015029 79 149 4.0 5.0 0.00 0.00 0.00 69 1007.1
20260506014044 79 137 4.0 6.0 0.00 0.00 0.00 68 1007.0
20260506013041 80 142 5.0 6.0 0.00 0.00 0.00 68 1006.7
20260506012103 80 141 5.0 7.0 0.00 0.00 0.00 67 1006.8
20260506011108 81 126 5.0 6.0 0.00 0.00 0.00 66 1006.8
20260506010127 82 131 5.0 6.0 0.00 0.00 0.00 65 1006.8
20260506005018 82 129 5.0 8.0 0.00 0.00 0.00 64 1006.8